Voltar ao catálogo

STARLINK-2194

AtivoComunicaçõesVLEO
NORAD 47771·PAYLOAD·🇺🇸 United States

Lançado Mar 4, 2021 de Cape Canaveral Space Force Station

Loading…

Próximas Passagens (próximas 24 horas)

TLE

AtualizadoSource: CelesTrak SupGP

Época: Sep 15, 2026, 00:44 UTC

1 47771C 21017BB  26258.03104167  .00005075  00000+0  14476-3 0  2581
2 47771  53.1581  42.2521 0000940   4.6131 355.6467 15.35494445    16

Acompanhe STARLINK-2194 em tempo real com AllMySat

Download on the App Store